Tracking 18785 objects as of 24-July-2017
HD Live streaming from Space Station
objects crossing your sky now
MAYAK may become the brightest orbital object in the night sky!
Where is MAYAK now?
How to spot MAYAK

USA 234

Track USA 234 now!
10-day predictions
USA 234 is classified as:


NORAD ID: 38109
Int'l Code: 2012-014A
Perigee: 1,086.0 km
Apogee: 1,103.8 km
Inclination: 123.0 °
Period: 107.0 minutes
Semi major axis: 7465 km
RCS: Unknown
Launch date: April 3, 2012
Source: United States (US)
Launch site: AIR FORCE WESTERN TEST RANGE (AFWTR)

NROL-25 is a classified spy satellite.
Your satellite tracking list
Your tracking list is empty





NASA's NSSDC Master Catalog

Two Line Element Set (TLE):
1 38109U 12014A   12097.24217397  .00000000  00000-0  00000-0 0    06
2 38109 122.9820 224.3613 0011938 300.1552  59.8228 13.45796211    09
Source of the keplerian elements: McCants